[[{"header":{"parameterUnit":"m.s-1","parameterCategory":1,"la1":30.2991,"la2":30.254,"lo1":-89.0895,"lo2":-89.0444,"dx":0.0017,"dy":0.0017,"nx":28,"ny":28,"refTime":"2022-11-08T09:00:00:Z","depth":0,"parameterNumber":2,"parameterNumberName":"U-component_of_WINDS"},"data":[0,0,0,0,0,0,0,0,0,0,0,0,0,0,0,0,0,0,0,0,0,0,0,0,0,0,0,0,0,0,0,0,0,0,0,0,0,0,0,0,0,0,0,0,0,0,0,0,0,0,0,0,0,0,0,0,0,0,-3.642,-3.642,0,-3.6466,-3.6466,-3.6467,-3.6344,-3.634,-3.6336,-3.6332,-3.6381,-3.6386,-3.639,0,0,0,0,0,0,0,0,0,0,0,0,0,-3.6225,-3.6229,-3.642,-3.642,-3.6421,-3.6466,-3.6466,-3.6467,-3.6344,-3.634,-3.6335,-3.6331,-3.6379,-3.6385,-3.6391,0,0,0,0,0,0,0,0,0,0,0,0,0,-3.6294,-3.623,-3.642,-3.6365,-3.6361,-3.6465,-3.6466,-3.6467,-3.6345,-3.634,-3.6334,-3.6328,-3.6377,-3.6384,-3.6392,-3.6552,0,0,-3.6414,-3.6417,0,0,0,0,0,0,0,0,-3.629,-3.6301,-3.6372,-3.6369,-3.6364,-3.6393,-3.6415,-3.6496,-3.6347,-3.6351,-3.6332,-3.6326,-3.639,-3.6396,-3.6417,-3.6554,-3.6556,-3.6415,-3.6419,-3.6422,-3.6424,0,0,0,0,0,0,0,-3.6286,-3.6299,-3.6438,-3.6374,-3.6369,-3.6338,-3.6341,-3.643,-3.6402,-3.635,-3.6342,-3.6349,-3.6386,-3.641,-3.6417,-3.6557,-3.6414,-3.6421,-3.6425,-3.6428,-3.6825,-3.6831,0,0,0,0,0,0,-3.6288,-3.6295,-3.6436,-3.6439,-3.6312,-3.6346,-3.635,-3.639,-3.6401,-3.6397,-3.6353,-3.6343,-3.6401,-3.6409,-3.6418,-3.6606,-3.6422,-3.6429,-3.6433,-3.6819,-3.6827,-3.6833,0,0,0,0,0,0,-3.6284,-3.6302,-3.6434,-3.6365,-3.6379,-3.6356,-3.6401,-3.6394,-3.6417,-3.6403,-3.6398,-3.6383,-3.6396,-3.6408,-3.6519,-3.6606,-3.6432,-3.6439,-3.6812,-3.6822,-3.683,-3.6983,0,0,0,0,0,0,-3.6279,-3.6301,-3.6362,-3.6367,-3.6384,-3.6535,-3.6406,-3.6399,-3.643,-3.6416,-3.6429,-3.6426,-3.6393,-3.6509,-3.6526,-3.6613,-3.6445,-3.6804,-3.6816,-3.6827,-3.697,-3.6996,-3.7018,0,0,0,0,0,-3.6273,-3.6404,-3.6366,-3.6384,-3.646,-3.6541,-3.655,-3.6508,-3.6438,-3.6498,-3.6489,-3.6426,-3.6593,-3.6521,-3.654,-3.663,-3.6799,-3.6813,-3.6826,-3.6959,-3.6991,-3.7018,0,0,0,0,0,0,-3.6411,-3.6404,-3.6361,-3.6498,-3.6521,-3.652,-3.6595,-3.6544,-3.6587,-3.6573,-3.652,-3.6524,-3.6644,-3.6647,-3.6568,-3.6784,-3.6684,-3.6702,-3.6778,-3.6808,-3.6832,-3.6829,-3.6451,0,0,0,0,0,-3.6457,-3.6523,-3.6513,-3.6635,-3.6648,-3.662,-3.6654,-3.662,-3.6641,-3.665,-3.6649,-3.6672,-3.6729,-3.6769,-3.6821,-3.6969,-3.6969,-3.7039,-3.7064,-3.7084,-3.7101,-3.7178,-3.7209,-3.6879,-3.6879,-3.6879,0,0,-3.6554,-3.6558,-3.6603,-3.6663,-3.6676,-3.6746,-3.6629,-3.6708,-3.6759,-3.6662,-3.6767,-3.6766,-3.6788,-3.6918,-3.6975,-3.6925,-3.7191,-3.7101,-3.7118,-3.7124,-3.7195,-3.7226,-3.7254,-3.6889,-3.6887,-3.6885,0,0,-3.6766,-3.6776,-3.6877,-3.6893,-3.6914,-3.6894,-3.6918,-3.6924,-3.692,-3.7024,-3.6952,-3.7011,-3.7112,-3.713,-3.7153,-3.7368,-3.7312,-3.7387,-3.7514,-3.759,-3.7616,-3.7639,-3.7715,-3.7743,-3.7403,-3.7404,-3.7404,0,-3.6884,-3.6985,-3.6937,-3.702,-3.7048,-3.6962,-3.7064,-3.7081,-3.7119,-3.714,-3.7082,-3.7205,-3.7214,-3.7346,-3.7399,-3.742,-3.7446,-3.7386,-3.7616,-3.7638,-3.7659,-3.7731,-3.776,-3.7413,-3.7411,-3.7411,-3.741,0,-3.7129,-3.72,-3.728,-3.7317,-3.7354,-3.7447,-3.7411,-3.7454,-3.7416,-3.7402,-3.7507,-3.7514,-3.7566,-3.7594,-3.7559,-3.7721,-3.7689,-3.7625,-3.7523,-3.77,-3.7767,-3.7795,-3.7425,-3.7422,-3.742,-3.7417,0,0,-3.7432,-3.7439,-3.7469,-3.7484,-3.75,-3.7554,-3.7642,-3.7691,-3.7729,-3.7757,-3.7829,-3.7914,-3.7854,-3.788,-3.7844,-3.7911,-3.808,-3.7838,-3.7837,-3.7883,-3.8259,-3.8308,-3.8341,-3.8042,-3.8047,-3.8051,-3.8257,0,-3.7641,-3.7791,-3.7749,-3.7899,-3.7964,-3.7882,-3.7958,-3.7976,-3.7964,-3.8017,-3.8003,-3.8065,-3.7981,-3.7996,-3.8058,-3.8047,-3.8155,-3.8031,-3.8109,-3.8112,-3.8107,-3.8376,-3.8429,-3.8623,-3.8283,-3.8288,-3.8291,0,-3.7905,-3.7942,-3.81,-3.8102,-3.8128,-3.8197,-3.8238,-3.829,-3.8307,-3.8294,-3.8321,-3.8272,-3.8357,-3.8254,-3.837,-3.8287,-3.8315,-3.8315,-3.8321,-3.8328,-3.8213,-3.8391,-3.8685,-3.8714,-3.8332,-3.8329,-3.8326,0,-3.811,-3.8199,-3.8304,-3.832,-3.8326,-3.8376,-3.8381,-3.8393,-3.8425,-3.846,-3.848,-3.8525,-3.855,-3.8586,-3.855,-3.8478,-3.8672,-3.8565,-3.8663,-3.8664,-3.8709,-3.8707,-3.9012,-3.8727,-3.8726,-3.8726,-3.8725,0,-3.8349,-3.8448,-3.8396,-3.8462,-3.857,-3.8519,-3.8627,-3.8622,-3.8633,-3.8695,-3.8626,-3.8686,-3.8634,-3.8688,-3.866,-3.8761,-3.8773,-3.8764,-3.8756,-3.8771,-3.8772,-3.879,-3.8775,-3.8733,-3.8732,-3.873,-3.8729,0,-3.8597,-3.8567,-3.8675,-3.8671,-3.8672,-3.8753,-3.8749,-3.8808,-3.879,-3.8869,-3.8885,-3.8857,-3.8918,-3.8884,-3.8947,-3.8928,-3.9058,-3.9031,-3.9053,-3.9046,-3.9145,-3.9136,-3.9473,-3.9514,-3.9202,-3.9205,-3.9208,0,-3.8752,-3.8826,-3.8829,-3.8865,-3.8874,-3.8934,-3.8965,-3.8917,-3.8953,-3.8977,-3.9033,-3.9087,-3.9128,-3.9229,-3.9214,-3.9261,-3.9235,-3.935,-3.9242,-3.9254,-3.9237,-3.9233,-3.924,-3.9372,-3.9376,-3.9379,-3.9381,0,-3.9029,-3.901,-3.9057,-3.91,-3.9139,-3.917,-3.9196,-3.9229,-3.9181,-3.9224,-3.9285,-3.9317,-3.9379,-3.9434,-3.9474,-3.9478,-3.9422,-3.9415,-3.944,-3.9457,-3.9466,-3.9462,-3.9112,-3.9408,-3.9405,-3.9403,-3.9402,-3.9401,-3.9235,-3.9297,-3.9308,-3.9363,-3.9377,-3.9402,-3.9457,-3.9445,-3.9494,-3.9541,-3.9509,-3.9581,-3.9594,-3.9641,-3.9653,-3.9707,-3.9661,-3.9698,-3.9707,-3.9717,-3.973,-3.9456,-3.9714,-3.9713,-3.9713,-3.9712,-3.9711,0,-3.9509,-3.9511,-3.9563,-3.9599,-3.9643,-3.9584,-3.9609,-3.9649,-3.9712,-3.9729,-3.977,-3.9839,-3.9891,-3.9879,-3.9926,-3.9972,-3.9947,-3.9986,-3.9982,-3.9984,-3.9769,-3.9743,-4.0005,-4.0005,-4.0005,-4.0005,-4.0004,-4.0004,-3.9657,-3.9757,-3.9739,-3.9845,-3.9846,-3.9915,-3.9934,-3.9956,-3.9969,-4.0049,-4.0091,-4.0083,-4.0088,-4.0134,-4.0178,-4.0173,-4.0194,-4.0242,-4.0228,-4.0028,-3.9999,-3.9972,-3.9947,-4.0247,-4.0247,-4.0438,-4.044,-4.0442]},{"header":{"parameterUnit":"m.s-1","parameterCategory":1,"la1":30.2991,"la2":30.254,"lo1":-89.0895,"lo2":-89.0444,"dx":0.0017,"dy":0.0017,"nx":28,"ny":28,"refTime":"2022-11-08T09:00:00:Z","depth":0,"parameterNumber":3,"parameterNumberName":"V-component_of_WINDS"},"data":[0,0,0,0,0,0,0,0,0,0,0,0,0,0,0,0,0,0,0,0,0,0,0,0,0,0,0,0,0,0,0,0,0,0,0,0,0,0,0,0,0,0,0,0,0,0,0,0,0,0,0,0,0,0,0,0,0,0,-4.3046,-4.3047,0,-4.3135,-4.3136,-4.3137,-4.3104,-4.3102,-4.31,-4.3098,-4.3186,-4.319,-4.3194,0,0,0,0,0,0,0,0,0,0,0,0,0,-4.2842,-4.2846,-4.3046,-4.3047,-4.3048,-4.3135,-4.3136,-4.3138,-4.3104,-4.3102,-4.3099,-4.3097,-4.3185,-4.319,-4.3195,0,0,0,0,0,0,0,0,0,0,0,0,0,-4.2931,-4.2847,-4.3046,-4.3042,-4.3043,-4.3135,-4.3137,-4.3138,-4.3105,-4.3102,-4.3099,-4.3096,-4.3183,-4.3189,-4.3196,-4.3296,0,0,-4.3215,-4.3218,0,0,0,0,0,0,0,0,-4.2926,-4.2938,-4.3042,-4.3043,-4.3043,-4.3106,-4.3097,-4.3191,-4.3106,-4.3081,-4.3098,-4.3094,-4.3162,-4.3169,-4.3193,-4.33,-4.3304,-4.3216,-4.3219,-4.3222,-4.3224,0,0,0,0,0,0,0,-4.292,-4.2934,-4.3081,-4.3043,-4.3044,-4.3034,-4.3044,-4.3114,-4.3137,-4.3083,-4.3081,-4.3092,-4.3161,-4.3187,-4.3195,-4.3305,-4.3215,-4.3221,-4.3225,-4.3227,-4.3496,-4.3499,0,0,0,0,0,0,-4.2914,-4.2929,-4.3078,-4.3084,-4.2976,-4.3041,-4.3051,-4.3089,-4.3136,-4.3141,-4.3095,-4.309,-4.3177,-4.3187,-4.3198,-4.3316,-4.3222,-4.3228,-4.3232,-4.3492,-4.3496,-4.35,0,0,0,0,0,0,-4.2909,-4.2927,-4.3075,-4.3006,-4.3024,-4.3047,-4.309,-4.3092,-4.3117,-4.3145,-4.3149,-4.3117,-4.3175,-4.3189,-4.3271,-4.3319,-4.3231,-4.3237,-4.3488,-4.3494,-4.3498,-4.3556,0,0,0,0,0,0,-4.2904,-4.2926,-4.2966,-4.3007,-4.3028,-4.3149,-4.3093,-4.3096,-4.3129,-4.3124,-4.3167,-4.3171,-4.3174,-4.3262,-4.3277,-4.3326,-4.3242,-4.3484,-4.3491,-4.3497,-4.3549,-4.3562,-4.3572,0,0,0,0,0,-4.2897,-4.2978,-4.2968,-4.2986,-4.3078,-4.3151,-4.3163,-4.3166,-4.3133,-4.3172,-4.3189,-4.3169,-4.3311,-4.3271,-4.3288,-4.3339,-4.3481,-4.3489,-4.3496,-4.3544,-4.3559,-4.3572,0,0,0,0,0,0,-4.2941,-4.2983,-4.2973,-4.307,-4.3108,-4.3146,-4.3195,-4.3182,-4.3229,-4.3222,-4.3223,-4.3233,-4.3317,-4.3337,-4.329,-4.3437,-4.3391,-4.3402,-4.3422,-4.3436,-4.3448,-4.3441,-4.3247,0,0,0,0,0,-4.2962,-4.3019,-4.3053,-4.3136,-4.3155,-4.3172,-4.3204,-4.3203,-4.3241,-4.3256,-4.328,-4.3317,-4.3369,-4.3404,-4.3454,-4.3552,-4.356,-4.3596,-4.3607,-4.3616,-4.3626,-4.3677,-4.3693,-4.3524,-4.3524,-4.3524,0,0,-4.3006,-4.3036,-4.3073,-4.3145,-4.3174,-4.3232,-4.3185,-4.3249,-4.3291,-4.3266,-4.3345,-4.3363,-4.3404,-4.3494,-4.3535,-4.3513,-4.3674,-4.3626,-4.3633,-4.3638,-4.3686,-4.3702,-4.3716,-4.3529,-4.3529,-4.3528,0,0,-4.3116,-4.3145,-4.3217,-4.3246,-4.3291,-4.3301,-4.3318,-4.3358,-4.3369,-4.3449,-4.3431,-4.348,-4.3571,-4.3601,-4.3627,-4.3746,-4.3729,-4.3762,-4.3822,-4.3872,-4.3885,-4.3897,-4.3937,-4.3952,-4.3772,-4.3772,-4.3772,0,-4.3165,-4.3252,-4.3255,-4.3319,-4.3351,-4.3331,-4.3402,-4.343,-4.3488,-4.351,-4.3484,-4.3597,-4.3623,-4.3719,-4.3747,-4.377,-4.3788,-4.3757,-4.3883,-4.3895,-4.3906,-4.3945,-4.396,-4.3776,-4.3775,-4.3775,-4.3774,0,-4.3309,-4.337,-4.3422,-4.3479,-4.3516,-4.3584,-4.3595,-4.3632,-4.3627,-4.364,-4.372,-4.375,-4.3805,-4.3828,-4.3824,-4.3923,-4.3907,-4.3883,-4.3836,-4.3926,-4.3962,-4.3977,-4.3781,-4.3779,-4.3778,-4.3777,0,0,-4.345,-4.3506,-4.3525,-4.355,-4.3597,-4.3643,-4.3708,-4.3763,-4.3794,-4.3834,-4.3888,-4.3964,-4.3941,-4.3972,-4.397,-4.4014,-4.4104,-4.3984,-4.3985,-4.4004,-4.4212,-4.423,-4.4247,-4.4093,-4.4096,-4.4098,-4.4208,0,-4.3562,-4.3679,-4.3682,-4.3788,-4.3842,-4.3823,-4.388,-4.3914,-4.3927,-4.3974,-4.3988,-4.4041,-4.4008,-4.4026,-4.4068,-4.4084,-4.4146,-4.4076,-4.4141,-4.4144,-4.4131,-4.4267,-4.4286,-4.4389,-4.4223,-4.4225,-4.4227,0,-4.3709,-4.3754,-4.3866,-4.3902,-4.3925,-4.3977,-4.4026,-4.4072,-4.4108,-4.4114,-4.4148,-4.414,-4.4204,-4.4156,-4.4244,-4.4197,-4.4223,-4.4235,-4.4239,-4.4244,-4.419,-4.4274,-4.4422,-4.4436,-4.425,-4.4248,-4.4246,0,-4.3798,-4.3887,-4.3964,-4.3986,-4.4032,-4.4068,-4.4088,-4.4122,-4.4154,-4.4196,-4.4217,-4.4266,-4.4293,-4.433,-4.4334,-4.4299,-4.4422,-4.4375,-4.4428,-4.4428,-4.4454,-4.4452,-4.4606,-4.4473,-4.4473,-4.4473,-4.4472,0,-4.3923,-4.3991,-4.4005,-4.4053,-4.4128,-4.413,-4.4204,-4.4221,-4.4251,-4.4301,-4.4287,-4.4333,-4.4337,-4.4384,-4.4388,-4.4459,-4.4471,-4.4477,-4.4477,-4.4477,-4.4477,-4.4494,-4.4487,-4.4477,-4.4476,-4.4475,-4.4474,0,-4.4035,-4.4048,-4.4131,-4.4167,-4.4177,-4.4231,-4.4261,-4.4305,-4.4316,-4.4379,-4.4393,-4.4411,-4.4465,-4.4473,-4.4537,-4.4539,-4.4624,-4.4617,-4.4612,-4.4611,-4.4663,-4.4657,-4.4833,-4.4855,-4.4708,-4.471,-4.4711,0,-4.4114,-4.4166,-4.4207,-4.424,-4.4262,-4.4315,-4.4347,-4.435,-4.4384,-4.4429,-4.4468,-4.4521,-4.4563,-4.465,-4.4668,-4.4716,-4.4709,-4.4767,-4.4716,-4.4715,-4.4708,-4.4705,-4.4709,-4.4777,-4.4778,-4.478,-4.4781,0,-4.4251,-4.4254,-4.4302,-4.4351,-4.439,-4.4429,-4.4466,-4.4493,-4.4501,-4.4539,-4.4595,-4.4628,-4.4693,-4.4745,-4.4792,-4.4811,-4.4797,-4.4797,-4.4811,-4.4812,-4.4806,-4.4809,-4.4638,-4.4793,-4.4791,-4.4791,-4.479,-4.4789,-4.4348,-4.4392,-4.4428,-4.4481,-4.4509,-4.4543,-4.4586,-4.4603,-4.465,-4.4703,-4.4702,-4.4763,-4.4796,-4.4858,-4.488,-4.4926,-4.4907,-4.4929,-4.4934,-4.4939,-4.4943,-4.48,-4.4935,-4.4935,-4.4935,-4.4934,-4.4934,0,-4.4482,-4.4504,-4.4553,-4.4605,-4.4646,-4.463,-4.4669,-4.4704,-4.4758,-4.4791,-4.4833,-4.4896,-4.4946,-4.4967,-4.5015,-4.5048,-4.5043,-4.5061,-4.5058,-4.5062,-4.4958,-4.494,-4.5064,-4.5064,-4.5064,-4.5064,-4.5064,-4.5064,-4.4557,-4.4632,-4.4639,-4.4726,-4.4747,-4.4807,-4.483,-4.4861,-4.4887,-4.4958,-4.5,-4.5013,-4.5041,-4.5091,-4.5135,-4.514,-4.5158,-4.5179,-4.518,-4.5083,-4.507,-4.5057,-4.504,-4.5183,-4.5183,-4.528,-4.5281,-4.5282]}]]